LHFH 200842Z 31505KT 28/18 Q1013 =

Kék Ég Repülő Sportegyesület


----

Centroplane Repülőiskola


Viharvadász Project

Airport WebCams in Europe